Voltar ao catálogo

DELTA 1 DEB

AtivoLEO
NORAD 10876·DEBRIS·🇺🇸 United States

Lançado Jul 29, 1976 de Vandenberg Space Force Base

Loading…

Próximas Passagens (próximas 24 horas)

TLE

AtualizadoSource: Space-Track

Época: Sep 14, 2026, 00:46 UTC

1 10876U 76077DE  26257.03216579  .00000008  00000-0  37232-3 0  9992
2 10876 102.6059 285.4188 0101338 107.6198 281.0855 12.48809227282184

Acompanhe DELTA 1 DEB em tempo real com AllMySat

Download on the App Store